Location: Banios
(43.0451°N, 0.2335°E)
Time: 12:20:42
(UTC+00:00)

A-11 Canister half - Pass Details

Date: 10 May 2021
Orbit: 1513 x 1686 km, 47.2° (Epoch: 14 June)

Event Time Altitude Azimuth Distance (km) Brightness Sun altitude
Rises 20:44:15 0° 293° (WNW) 4,670 13.0 -14.9°
Reaches altitude 10° 20:47:16 10° 293° (WNW) 3,697 12.1 -15.3°
Maximum altitude 20:56:35 78° 209° (SSW) 1,591 9.0 -16.6°
Enters shadow 21:03:15 23° 127° (SE) 2,895 9.8 -17.4°
Drops below altitude 10° 21:06:12 10° 125° (SE) 3,806 - -17.8°
Sets 21:09:20 0° 124° (SE) 4,813 - -18.1°
